"Pseudo-MPEC" for P11l8on

Created 2021 Sep 16 20:07:21 UT using Find_Orb

Click here for an explanation of pseudo-MPECs

 
 Astrometry: 
     P11l8on  C2021 09 13\DEodd,htMa5rasQ+BBjtpG^lv7Gnslmh0Xtx,!`A$X]wdB@`3:VF51
     P11l8on  C2021 09 13Z0:'`+(.$tAstrometryl_Z@]fBwa0DwNAq4TeDhu8o5DxDHLFo1F51
     P11l8on  C2021 09 13Z5o1redacted;F;1V`c*[45b#OUseyKc!w/p/C`XwKX875RT?3h8F51
     P11l8on  C2021 09 13HhT/S]b$Fd!/4d,Nv)TUAkDNEca3UdV0jNsC1\G1F@4Acq/q*bJXF51
     P11l8on |C2021 09 14ah@tC^*-NX'KicrTcNNwIT:uc1!HM4nck^mSf47Iwc$:lRkclick807
     P11l8on |C2021 09 14;-`6JKlryrSg@S*e8RXXRp')Y+wK8iAyOW#IvSuOu;\%[N1S-i`#807
     P11l8on |C2021 09 14qi6VgbH0]G_:K9!Gm*B/f!D;3w]%M'o^H1,Xn.q/3d'41t-]^/'y807
     P11l8on |C2021 09 15B%!xbZCPkaJI02@sE+YpNQ$26gm5/rka5%AX/_JKdM[vHTBST!#\807
     P11l8on |C2021 09 15S'ninbXW4#s#):\8T`=gx:5R\h`8FCE'khv-F-B$ZE-u[y)u=Gco807
     P11l8on |C2021 09 15;xRAbjg_iH+WD8W,Z[fZB;ovDEmEbba`9[']@LKK]Id:UxPv2r7\807
     P11l8on  C2021 09 15H\';'iXB)v[?WuRDF#'JAB%tr!,DmBmOIb0ltSPhereqforho(aDF51
     P11l8on  C2021 09 15Z+k8g;explanation3ct-5Pn3CjLnC6`=Cjhf9KM^_2)QSxerLQtF51

Station data:
(807) Cerro Tololo Observatory, La Serena  (S30.169136 W70.805900)  Chile.
(F51) Pan-STARRS 1, Haleakala  (N20.707235 W156.255910)  US/Hawaii.
   Observers N. Primak, A. Schultz, S. Watters, J. Thiel, T. Goggia. Measurer
   PS1 Science Consortium. 1.8-m Ritchey-Chrétien + CCD.

Orbital elements:  P11l8on
   Perihelion 2021 Oct 11.891715 +/- 12.1496 TT = 21:24:04 (JD 2459499.391715)
Epoch 2021 Sep 15.0 TT = JDT 2459472.5   Earth MOID: 0.7691   AutoNEOCP
M 353.65888429 +/- 3.2730778        (J2000 ecliptic)
n   0.23580183 +/- 0.0133144        Peri.  291.59924 +/- 8.3790016
a   2.59480425 +/- 0.0975961        Node    88.32942 +/- 2.0697901
e   0.3526422 +/- 0.0153322         Incl.   17.58548 +/- 0.2010251
P   4.18                   H 19.5   G  0.15   U  9.9  
q 1.67976664 +/- 0.0225743    Q 3.50984185 +/- 0.165379
From 12 observations 2021 Sept. 13-15; mean residual 0".08
Residuals in arcseconds: 
210913 F51  .01+  .02-    210914 807  .18+  .14+    210915 807  .06+  .01+    
210913 F51  .02-  .04+    210914 807  .12-  .07-    210915 807  .08+  .02+    
210913 F51  .01+  .06+    210914 807  .14-  .08-    210915 F51  .14-  .05-    
210913 F51  .04+  .07-    210915 807  .05-  .03-    210915 F51  .10+  .06+    

Ephemerides (geocentric):
Date (UTC) HH   RA              Dec         delta   r     elong  mag " sig PA
---- -- -- --  -------------   -----------  ------ ------ -----  --- ---- ---
2021 09 16 20  02 35 28.956   -23 46 40.40  .84469 1.6913 132.0 21.5 .911  97
2021 09 16 21  02 35 29.633   -23 46 58.06  .84451 1.6913 132.0 21.5 .952  97
2021 09 16 22  02 35 30.305   -23 47 15.71  .84434 1.6912 132.1 21.5 0.99  97
2021 09 16 23  02 35 30.973   -23 47 33.34  .84416 1.6912 132.1 21.5 1.04  97
2021 09 17 00  02 35 31.636   -23 47 50.96  .84399 1.6912 132.1 21.5 1.08  97
2021 09 17 01  02 35 32.294   -23 48 08.55  .84381 1.6911 132.1 21.5 1.12  97
2021 09 17 02  02 35 32.948   -23 48 26.13  .84364 1.6911 132.1 21.5 1.17  97
2021 09 17 03  02 35 33.597   -23 48 43.69  .84346 1.6910 132.2 21.5 1.21  97
2021 09 17 04  02 35 34.242   -23 49 01.23  .84329 1.6910 132.2 21.5 1.26  97
2021 09 17 05  02 35 34.882   -23 49 18.75  .84312 1.6910 132.2 21.5 1.31  97
2021 09 17 06  02 35 35.517   -23 49 36.26  .84294 1.6909 132.2 21.5 1.36  97
2021 09 17 07  02 35 36.148   -23 49 53.75  .84277 1.6909 132.2 21.5 1.41  97
2021 09 17 08  02 35 36.774   -23 50 11.22  .84259 1.6909 132.3 21.5 1.46  97
2021 09 17 09  02 35 37.395   -23 50 28.67  .84242 1.6908 132.3 21.5 1.51  97
2021 09 17 10  02 35 38.012   -23 50 46.10  .84225 1.6908 132.3 21.5 1.56  97
2021 09 17 11  02 35 38.624   -23 51 03.51  .84207 1.6907 132.3 21.5 1.61  97
2021 09 17 12  02 35 39.231   -23 51 20.91  .84190 1.6907 132.3 21.5 1.66  97
2021 09 17 13  02 35 39.834   -23 51 38.29  .84173 1.6907 132.4 21.5 1.72  97
2021 09 17 14  02 35 40.432   -23 51 55.65  .84156 1.6906 132.4 21.5 1.77  97
2021 09 17 15  02 35 41.026   -23 52 12.99  .84138 1.6906 132.4 21.5 1.83  97
2021 09 17 16  02 35 41.615   -23 52 30.31  .84121 1.6906 132.4 21.4 1.88  97
2021 09 17 17  02 35 42.199   -23 52 47.61  .84104 1.6905 132.4 21.4 1.94  97
2021 09 17 18  02 35 42.779   -23 53 04.90  .84087 1.6905 132.5 21.4 2.00  97
2021 09 17 19  02 35 43.354   -23 53 22.16  .84070 1.6904 132.5 21.4 2.06  97
2021 09 17 20  02 35 43.924   -23 53 39.41  .84053 1.6904 132.5 21.4 2.12  97
2021 09 17 21  02 35 44.490   -23 53 56.64  .84036 1.6904 132.5 21.4 2.18  97
2021 09 17 22  02 35 45.051   -23 54 13.85  .84018 1.6903 132.5 21.4 2.24  97
2021 09 17 23  02 35 45.608   -23 54 31.04  .84001 1.6903 132.6 21.4 2.30  97
2021 09 18 00  02 35 46.160   -23 54 48.21  .83984 1.6903 132.6 21.4 2.36  97
2021 09 18 01  02 35 46.707   -23 55 05.36  .83967 1.6902 132.6 21.4 2.43  97
2021 09 18 02  02 35 47.249   -23 55 22.49  .83950 1.6902 132.6 21.4 2.49  97
2021 09 18 03  02 35 47.787   -23 55 39.60  .83933 1.6902 132.6 21.4 2.56  97
2021 09 18 04  02 35 48.321   -23 55 56.70  .83916 1.6901 132.7 21.4 2.62  97
2021 09 18 05  02 35 48.849   -23 56 13.77  .83899 1.6901 132.7 21.4 2.69  97
2021 09 18 06  02 35 49.373   -23 56 30.83  .83882 1.6900 132.7 21.4 2.76  97
2021 09 18 07  02 35 49.893   -23 56 47.86  .83865 1.6900 132.7 21.4 2.83  97
2021 09 18 08  02 35 50.407   -23 57 04.88  .83849 1.6900 132.7 21.4 2.90  97
2021 09 18 09  02 35 50.917   -23 57 21.87  .83832 1.6899 132.7 21.4 2.97  97
2021 09 18 10  02 35 51.423   -23 57 38.85  .83815 1.6899 132.8 21.4 3.04  97
2021 09 18 11  02 35 51.923   -23 57 55.80  .83798 1.6899 132.8 21.4 3.11  97
2021 09 18 12  02 35 52.420   -23 58 12.74  .83781 1.6898 132.8 21.4 3.18  97
2021 09 18 13  02 35 52.911   -23 58 29.66  .83764 1.6898 132.8 21.4 3.26  97
2021 09 18 14  02 35 53.398   -23 58 46.55  .83748 1.6898 132.8 21.4 3.33  97
2021 09 18 15  02 35 53.880   -23 59 03.43  .83731 1.6897 132.9 21.4 3.41  97
2021 09 18 16  02 35 54.358   -23 59 20.29  .83714 1.6897 132.9 21.4 3.48  97
2021 09 18 17  02 35 54.830   -23 59 37.12  .83697 1.6897 132.9 21.4 3.56  97
2021 09 18 18  02 35 55.299   -23 59 53.94  .83681 1.6896 132.9 21.4 3.64  97
2021 09 18 19  02 35 55.762   -24 00 10.73  .83664 1.6896 132.9 21.4 3.72  97